Time,TemperatureF,DewpointF,PressureIn,WindDirection,WindDirectionDegrees,WindSpeedMPH,WindSpeedGustMPH,Humidity,HourlyPrecipIn,Conditions,Clouds,dailyrainin,SoftwareType,DateUTC
2012-11-18 00:00:00,42.7,41.0,29.68,SW,225,4.5,11.4,94,0.01,,,0.00,WUHU216HW,2012-11-18 08:00:00,
2012-11-18 00:05:00,42.7,41.0,29.68,SSW,203,4.7,12.8,94,0.01,,,0.00,WUHU216HW,2012-11-18 08:05:00,
2012-11-18 00:10:00,42.5,40.9,29.69,SSW,203,5.6,12.8,94,0.01,,,0.00,WUHU216HW,2012-11-18 08:10:00,
2012-11-18 00:15:00,42.5,40.9,29.68,ENE,68,3.1,9.8,94,0.00,,,0.00,WUHU216HW,2012-11-18 08:15:00,
2012-11-18 00:20:00,42.5,40.9,29.68,WNW,293,3.4,10.3,94,0.00,,,0.00,WUHU216HW,2012-11-18 08:20:00,
2012-11-18 00:25:00,42.7,41.0,29.68,WSW,248,2.0,12.1,94,0.00,,,0.00,WUHU216HW,2012-11-18 08:25:00,
2012-11-18 00:30:00,42.7,41.0,29.69,SW,225,7.4,12.1,94,0.00,,,0.00,WUHU216HW,2012-11-18 08:30:00,
2012-11-18 00:35:00,42.7,41.0,29.68,SSW,203,4.9,9.8,94,0.00,,,0.00,WUHU216HW,2012-11-18 08:35:00,
2012-11-18 00:40:00,42.7,41.0,29.68,SW,225,3.8,10.1,94,0.00,,,0.00,WUHU216HW,2012-11-18 08:40:00,
2012-11-18 00:45:00,42.8,41.2,29.68,WSW,248,2.5,10.1,94,0.00,,,0.00,WUHU216HW,2012-11-18 08:45:00,
2012-11-18 00:50:00,42.8,41.2,29.68,WSW,248,2.0,5.8,94,0.00,,,0.00,WUHU216HW,2012-11-18 08:50:00,
2012-11-18 00:55:00,42.8,41.2,29.68,SSW,203,0.7,5.4,94,0.00,,,0.00,WUHU216HW,2012-11-18 08:55:00,
2012-11-18 01:00:00,42.8,41.2,29.68,SSW,203,1.8,6.9,94,0.00,,,0.00,WUHU216HW,2012-11-18 09:00:00,
2012-11-18 01:05:00,42.8,41.2,29.68,West,270,0.4,6.9,94,0.00,,,0.00,WUHU216HW,2012-11-18 09:05:00,
2012-11-18 01:10:00,42.8,41.2,29.68,SSW,203,1.1,6.3,94,0.00,,,0.00,WUHU216HW,2012-11-18 09:10:00,
2012-11-18 01:15:00,42.8,41.2,29.68,WSW,248,4.0,6.7,94,0.00,,,0.00,WUHU216HW,2012-11-18 09:15:00,
2012-11-18 01:20:00,42.8,41.2,29.68,SSW,203,4.5,6.7,94,0.00,,,0.00,WUHU216HW,2012-11-18 09:20:00,
2012-11-18 01:25:00,42.8,41.2,29.68,SW,225,3.8,4.5,94,0.00,,,0.00,WUHU216HW,2012-11-18 09:25:00,
2012-11-18 01:30:00,42.7,41.0,29.68,SW,225,1.1,4.0,94,0.00,,,0.00,WUHU216HW,2012-11-18 09:30:00,
2012-11-18 01:35:00,42.7,41.0,29.68,SSW,203,1.6,5.1,94,0.00,,,0.00,WUHU216HW,2012-11-18 09:35:00,
2012-11-18 01:40:00,42.5,40.9,29.68,SSW,203,4.5,5.4,94,0.00,,,0.00,WUHU216HW,2012-11-18 09:40:00,
2012-11-18 01:45:00,42.5,40.9,29.69,South,180,1.6,5.4,94,0.00,,,0.00,WUHU216HW,2012-11-18 09:45:00,
2012-11-18 01:50:00,42.5,40.9,29.68,SW,225,1.6,9.4,94,0.00,,,0.00,WUHU216HW,2012-11-18 09:50:00,
2012-11-18 01:55:00,42.5,40.9,29.69,SSW,203,6.9,9.4,94,0.00,,,0.00,WUHU216HW,2012-11-18 09:55:00,
2012-11-18 02:00:00,42.5,40.9,29.69,WSW,248,2.9,6.9,94,0.00,,,0.00,WUHU216HW,2012-11-18 10:00:00,
2012-11-18 02:05:00,42.5,40.9,29.69,WSW,248,4.5,6.9,94,0.00,,,0.00,WUHU216HW,2012-11-18 10:05:00,
2012-11-18 02:10:00,42.5,40.9,29.69,SW,225,5.8,5.8,94,0.00,,,0.00,WUHU216HW,2012-11-18 10:10:00,
2012-11-18 02:15:00,42.7,41.0,29.69,West,270,2.5,8.5,94,0.00,,,0.00,WUHU216HW,2012-11-18 10:15:00,
2012-11-18 02:20:00,42.8,41.2,29.70,WSW,248,4.3,8.5,94,0.00,,,0.00,WUHU216HW,2012-11-18 10:20:00,
2012-11-18 02:25:00,43.0,41.4,29.70,WSW,248,3.4,13.0,94,0.01,,,0.01,WUHU216HW,2012-11-18 10:25:00,
2012-11-18 02:30:00,43.2,41.6,29.71,SW,225,4.0,13.0,94,0.02,,,0.02,WUHU216HW,2012-11-18 10:30:00,
2012-11-18 02:35:00,43.2,41.6,29.71,SSW,203,3.1,6.9,94,0.02,,,0.02,WUHU216HW,2012-11-18 10:35:00,
2012-11-18 02:40:00,43.2,41.6,29.71,SSW,203,2.2,6.3,94,0.03,,,0.03,WUHU216HW,2012-11-18 10:40:00,
2012-11-18 02:45:00,43.2,41.6,29.71,WSW,248,2.5,5.1,94,0.04,,,0.04,WUHU216HW,2012-11-18 10:45:00,
2012-11-18 02:50:00,43.2,41.6,29.71,WNW,293,1.1,3.4,94,0.05,,,0.05,WUHU216HW,2012-11-18 10:50:00,
2012-11-18 02:55:00,43.2,41.6,29.71,SW,225,0.4,2.5,94,0.05,,,0.05,WUHU216HW,2012-11-18 10:55:00,
2012-11-18 03:00:00,43.0,41.4,29.71,West,270,2.0,2.5,94,0.05,,,0.05,WUHU216HW,2012-11-18 11:00:00,
2012-11-18 03:05:00,43.2,41.6,29.71,SW,225,1.1,2.5,94,0.05,,,0.05,WUHU216HW,2012-11-18 11:05:00,
2012-11-18 03:10:00,43.2,41.6,29.71,SW,225,1.1,2.5,94,0.06,,,0.06,WUHU216HW,2012-11-18 11:10:00,
2012-11-18 03:15:00,43.2,41.6,29.71,SW,225,2.7,3.1,94,0.06,,,0.06,WUHU216HW,2012-11-18 11:15:00,
2012-11-18 03:20:00,43.2,41.6,29.71,WSW,248,2.5,3.6,94,0.06,,,0.07,WUHU216HW,2012-11-18 11:20:00,
2012-11-18 03:25:00,43.2,41.6,29.71,WSW,248,1.6,4.7,94,0.06,,,0.08,WUHU216HW,2012-11-18 11:25:00,
2012-11-18 03:30:00,43.2,41.6,29.71,WSW,248,3.4,4.7,94,0.08,,,0.10,WUHU216HW,2012-11-18 11:30:00,
2012-11-18 03:35:00,43.2,41.6,29.71,SSW,203,2.9,5.4,94,0.10,,,0.12,WUHU216HW,2012-11-18 11:35:00,
2012-11-18 03:40:00,43.2,41.6,29.71,SSE,158,1.8,5.4,94,0.10,,,0.14,WUHU216HW,2012-11-18 11:40:00,
2012-11-18 03:45:00,43.2,41.9,29.71,SW,225,5.1,11.4,95,0.11,,,0.15,WUHU216HW,2012-11-18 11:45:00,
2012-11-18 03:50:00,43.2,41.9,29.71,SSW,203,1.6,11.4,95,0.11,,,0.16,WUHU216HW,2012-11-18 11:50:00,
2012-11-18 03:55:00,43.4,42.0,29.71,SW,225,8.1,8.1,95,0.14,,,0.19,WUHU216HW,2012-11-18 11:55:00,
2012-11-18 04:00:00,43.2,41.9,29.71,SW,225,4.7,8.1,95,0.15,,,0.20,WUHU216HW,2012-11-18 12:00:00,
2012-11-18 04:05:00,43.2,41.9,29.71,SW,225,3.8,9.2,95,0.16,,,0.21,WUHU216HW,2012-11-18 12:05:00,
2012-11-18 04:10:00,43.4,42.0,29.71,SSE,158,3.1,9.2,95,0.15,,,0.21,WUHU216HW,2012-11-18 12:10:00,
2012-11-18 04:15:00,43.4,42.0,29.71,SSW,203,1.1,5.4,95,0.15,,,0.21,WUHU216HW,2012-11-18 12:15:00,
2012-11-18 04:20:00,43.4,42.0,29.71,SW,225,2.7,6.7,95,0.14,,,0.21,WUHU216HW,2012-11-18 12:20:00,
2012-11-18 04:25:00,43.4,42.0,29.72,North,0,4.9,6.7,95,0.12,,,0.21,WUHU216HW,2012-11-18 12:25:00,
2012-11-18 04:30:00,43.4,42.0,29.72,SW,225,0.4,13.6,95,0.12,,,0.22,WUHU216HW,2012-11-18 12:30:00,
2012-11-18 04:35:00,43.4,42.0,29.71,WSW,248,2.7,13.6,95,0.10,,,0.22,WUHU216HW,2012-11-18 12:35:00,
2012-11-18 04:40:00,43.4,42.0,29.72,SSW,203,0.4,5.8,95,0.07,,,0.22,WUHU216HW,2012-11-18 12:40:00,
2012-11-18 04:45:00,43.4,42.0,29.72,West,270,0.7,3.8,95,0.06,,,0.22,WUHU216HW,2012-11-18 12:45:00,
2012-11-18 04:50:00,43.4,42.0,29.72,SW,225,4.0,6.0,95,0.04,,,0.22,WUHU216HW,2012-11-18 12:50:00,
2012-11-18 04:55:00,43.6,42.2,29.72,SSW,203,1.6,6.9,95,0.03,,,0.22,WUHU216HW,2012-11-18 12:55:00,
2012-11-18 05:00:00,43.6,42.2,29.72,SW,225,2.5,6.9,95,0.01,,,0.22,WUHU216HW,2012-11-18 13:00:00,
2012-11-18 05:05:00,43.6,42.2,29.72,SSW,203,3.1,4.0,95,0.01,,,0.22,WUHU216HW,2012-11-18 13:05:00,
2012-11-18 05:10:00,43.6,42.2,29.72,WSW,248,2.7,6.5,95,0.01,,,0.22,WUHU216HW,2012-11-18 13:10:00,
2012-11-18 05:15:00,43.6,42.2,29.71,WSW,248,2.9,6.5,95,0.01,,,0.22,WUHU216HW,2012-11-18 13:15:00,
2012-11-18 05:20:00,43.6,42.2,29.71,SSW,203,1.8,4.5,95,0.01,,,0.22,WUHU216HW,2012-11-18 13:20:00,
2012-11-18 05:25:00,43.6,42.2,29.71,SW,225,0.0,4.5,95,0.01,,,0.22,WUHU216HW,2012-11-18 13:25:00,
2012-11-18 05:30:00,43.6,42.2,29.71,SSW,203,0.7,3.4,95,0.00,,,0.22,WUHU216HW,2012-11-18 13:30:00,
2012-11-18 05:35:00,43.6,42.2,29.71,SW,225,2.9,4.0,95,0.00,,,0.22,WUHU216HW,2012-11-18 13:35:00,
2012-11-18 05:40:00,43.6,42.2,29.71,SW,225,0.4,5.1,95,0.00,,,0.22,WUHU216HW,2012-11-18 13:40:00,
2012-11-18 05:45:00,43.6,42.2,29.71,WSW,248,1.1,5.1,95,0.00,,,0.22,WUHU216HW,2012-11-18 13:45:00,
2012-11-18 05:50:00,43.6,42.2,29.71,West,270,0.4,4.9,95,0.00,,,0.22,WUHU216HW,2012-11-18 13:50:00,
2012-11-18 05:55:00,43.4,42.0,29.71,SSW,203,3.1,4.9,95,0.00,,,0.22,WUHU216HW,2012-11-18 13:55:00,
2012-11-18 06:00:00,43.6,42.2,29.71,SW,225,4.7,4.7,95,0.00,,,0.22,WUHU216HW,2012-11-18 14:00:00,
2012-11-18 06:05:00,43.6,42.2,29.71,West,270,0.7,4.7,95,0.00,,,0.22,WUHU216HW,2012-11-18 14:05:00,
2012-11-18 06:10:00,43.4,42.0,29.70,WSW,248,1.1,4.7,95,0.00,,,0.22,WUHU216HW,2012-11-18 14:10:00,
2012-11-18 06:15:00,43.4,42.0,29.71,SSW,203,0.0,4.7,95,0.00,,,0.22,WUHU216HW,2012-11-18 14:15:00,
2012-11-18 06:20:00,43.4,42.0,29.71,West,270,0.7,4.7,95,0.00,,,0.22,WUHU216HW,2012-11-18 14:20:00,
2012-11-18 06:25:00,43.4,42.0,29.71,SW,225,0.9,4.3,95,0.00,,,0.22,WUHU216HW,2012-11-18 14:25:00,
2012-11-18 06:30:00,43.4,42.0,29.71,SW,225,1.6,2.7,95,0.00,,,0.22,WUHU216HW,2012-11-18 14:30:00,
2012-11-18 06:35:00,43.4,42.0,29.71,WNW,293,2.5,4.7,95,0.00,,,0.22,WUHU216HW,2012-11-18 14:35:00,
2012-11-18 06:40:00,43.4,42.0,29.71,SW,225,3.1,5.4,95,0.00,,,0.22,WUHU216HW,2012-11-18 14:40:00,
2012-11-18 06:45:00,43.4,42.0,29.71,WSW,248,0.4,5.4,95,0.01,,,0.23,WUHU216HW,2012-11-18 14:45:00,
2012-11-18 06:50:00,43.4,42.0,29.71,SSW,203,2.0,4.7,95,0.01,,,0.23,WUHU216HW,2012-11-18 14:50:00,
2012-11-18 06:55:00,43.4,42.0,29.71,SSW,203,2.9,2.9,95,0.02,,,0.24,WUHU216HW,2012-11-18 14:55:00,
2012-11-18 07:00:00,43.4,42.0,29.71,SSW,203,1.8,3.1,95,0.02,,,0.24,WUHU216HW,2012-11-18 15:00:00,
2012-11-18 07:05:00,43.4,42.0,29.71,WSW,248,0.4,3.6,95,0.02,,,0.24,WUHU216HW,2012-11-18 15:05:00,
2012-11-18 07:10:00,43.4,42.0,29.71,West,270,2.0,3.6,95,0.03,,,0.25,WUHU216HW,2012-11-18 15:10:00,
2012-11-18 07:15:00,43.4,42.0,29.71,WSW,248,2.0,3.4,95,0.03,,,0.25,WUHU216HW,2012-11-18 15:15:00,
2012-11-18 07:20:00,43.2,41.9,29.71,WSW,248,2.9,3.4,95,0.04,,,0.26,WUHU216HW,2012-11-18 15:20:00,
2012-11-18 07:25:00,43.2,41.9,29.71,SW,225,1.8,3.4,95,0.04,,,0.26,WUHU216HW,2012-11-18 15:25:00,
2012-11-18 07:30:00,43.2,41.9,29.71,West,270,1.8,2.9,95,0.04,,,0.26,WUHU216HW,2012-11-18 15:30:00,
2012-11-18 07:35:00,43.2,41.9,29.71,WSW,248,2.0,2.5,95,0.04,,,0.26,WUHU216HW,2012-11-18 15:35:00,
2012-11-18 07:40:00,43.2,41.9,29.71,WSW,248,2.0,2.9,95,0.04,,,0.27,WUHU216HW,2012-11-18 15:40:00,
2012-11-18 07:45:00,43.2,41.9,29.71,WSW,248,1.8,2.9,95,0.05,,,0.28,WUHU216HW,2012-11-18 15:45:00,
2012-11-18 07:50:00,43.2,41.9,29.71,WSW,248,1.8,2.5,95,0.05,,,0.28,WUHU216HW,2012-11-18 15:50:00,
2012-11-18 07:55:00,43.2,41.9,29.71,WSW,248,0.9,3.4,95,0.04,,,0.28,WUHU216HW,2012-11-18 15:55:00,
2012-11-18 08:00:00,43.2,41.9,29.71,SW,225,2.2,3.4,95,0.04,,,0.28,WUHU216HW,2012-11-18 16:00:00,
2012-11-18 08:05:00,43.2,41.9,29.71,WSW,248,1.1,3.6,95,0.04,,,0.29,WUHU216HW,2012-11-18 16:05:00,
2012-11-18 08:10:00,43.2,41.9,29.71,SW,225,1.1,3.6,95,0.04,,,0.29,WUHU216HW,2012-11-18 16:10:00,
2012-11-18 08:15:00,43.2,41.9,29.71,WSW,248,0.9,2.5,95,0.05,,,0.30,WUHU216HW,2012-11-18 16:15:00,
2012-11-18 08:20:00,43.2,41.9,29.71,West,270,0.9,2.2,95,0.04,,,0.30,WUHU216HW,2012-11-18 16:20:00,
2012-11-18 08:25:00,43.2,41.9,29.71,West,270,0.4,1.8,95,0.04,,,0.30,WUHU216HW,2012-11-18 16:25:00,
2012-11-18 08:30:00,43.2,41.9,29.71,WSW,248,0.0,1.1,95,0.05,,,0.31,WUHU216HW,2012-11-18 16:30:00,
2012-11-18 08:35:00,43.4,42.0,29.71,WSW,248,0.7,1.1,95,0.04,,,0.31,WUHU216HW,2012-11-18 16:35:00,
2012-11-18 08:40:00,43.4,42.0,29.71,WSW,248,0.0,1.1,95,0.04,,,0.32,WUHU216HW,2012-11-18 16:40:00,
2012-11-18 08:45:00,43.4,42.0,29.71,WSW,248,0.7,1.1,95,0.04,,,0.32,WUHU216HW,2012-11-18 16:45:00,
2012-11-18 08:50:00,43.4,42.0,29.71,WSW,248,0.0,1.1,95,0.05,,,0.33,WUHU216HW,2012-11-18 16:50:00,
2012-11-18 08:55:00,43.4,42.0,29.71,SW,225,1.1,1.8,95,0.05,,,0.33,WUHU216HW,2012-11-18 16:55:00,
2012-11-18 09:00:00,43.6,42.2,29.72,SSW,203,1.8,1.8,95,0.04,,,0.33,WUHU216HW,2012-11-18 17:00:00,
2012-11-18 09:05:00,43.6,42.2,29.72,SW,225,0.4,3.1,95,0.04,,,0.33,WUHU216HW,2012-11-18 17:05:00,
2012-11-18 09:10:00,43.6,42.2,29.72,South,180,4.3,4.3,95,0.05,,,0.34,WUHU216HW,2012-11-18 17:10:00,
2012-11-18 09:15:00,43.6,42.2,29.72,WSW,248,1.1,4.3,95,0.04,,,0.34,WUHU216HW,2012-11-18 17:15:00,
2012-11-18 09:20:00,43.7,42.4,29.72,SSE,158,0.0,4.3,95,0.04,,,0.34,WUHU216HW,2012-11-18 17:20:00,
2012-11-18 09:25:00,43.7,42.4,29.72,NNW,338,0.7,1.6,95,0.04,,,0.35,WUHU216HW,2012-11-18 17:25:00,
2012-11-18 09:30:00,43.9,42.6,29.72,SW,225,0.4,2.2,95,0.04,,,0.35,WUHU216HW,2012-11-18 17:30:00,
2012-11-18 09:35:00,43.9,42.6,29.72,SW,225,0.2,4.7,95,0.03,,,0.35,WUHU216HW,2012-11-18 17:35:00,
2012-11-18 09:40:00,44.1,42.8,29.72,ESE,113,1.3,4.7,95,0.04,,,0.36,WUHU216HW,2012-11-18 17:40:00,
2012-11-18 09:45:00,44.1,42.8,29.72,NE,45,1.1,1.8,95,0.03,,,0.36,WUHU216HW,2012-11-18 17:45:00,
2012-11-18 09:50:00,44.3,42.9,29.72,WSW,248,1.6,1.8,95,0.03,,,0.36,WUHU216HW,2012-11-18 17:50:00,
2012-11-18 09:55:00,44.3,42.9,29.72,WSW,248,1.1,1.8,95,0.03,,,0.36,WUHU216HW,2012-11-18 17:55:00,
2012-11-18 10:00:00,44.5,43.1,29.72,SSW,203,3.4,3.4,95,0.03,,,0.36,WUHU216HW,2012-11-18 18:00:00,
2012-11-18 10:05:00,44.5,43.1,29.72,WSW,248,0.7,3.4,95,0.02,,,0.36,WUHU216HW,2012-11-18 18:05:00,
2012-11-18 10:10:00,44.6,43.3,29.72,SSW,203,1.1,3.4,95,0.02,,,0.36,WUHU216HW,2012-11-18 18:10:00,
2012-11-18 10:15:00,44.6,43.3,29.72,West,270,0.7,4.0,95,0.02,,,0.36,WUHU216HW,2012-11-18 18:15:00,
2012-11-18 10:20:00,44.8,43.5,29.72,WSW,248,0.2,4.0,95,0.01,,,0.36,WUHU216HW,2012-11-18 18:20:00,
2012-11-18 10:25:00,44.8,43.5,29.72,SSW,203,0.2,3.8,95,0.01,,,0.36,WUHU216HW,2012-11-18 18:25:00,
2012-11-18 10:30:00,45.0,43.7,29.72,SSW,203,1.1,3.8,95,0.01,,,0.36,WUHU216HW,2012-11-18 18:30:00,
2012-11-18 10:35:00,45.0,43.7,29.72,SW,225,2.5,5.4,95,0.01,,,0.36,WUHU216HW,2012-11-18 18:35:00,
2012-11-18 10:40:00,45.0,43.7,29.72,SSW,203,2.2,5.4,95,0.00,,,0.36,WUHU216HW,2012-11-18 18:40:00,
2012-11-18 10:45:00,45.2,43.8,29.72,WSW,248,4.7,4.7,95,0.00,,,0.36,WUHU216HW,2012-11-18 18:45:00,
2012-11-18 10:50:00,45.4,44.0,29.72,WSW,248,0.7,5.1,95,0.00,,,0.36,WUHU216HW,2012-11-18 18:50:00,
2012-11-18 10:55:00,45.4,44.0,29.72,SW,225,1.1,5.1,95,0.00,,,0.36,WUHU216HW,2012-11-18 18:55:00,
2012-11-18 11:00:00,45.5,44.2,29.72,WSW,248,2.0,6.0,95,0.00,,,0.36,WUHU216HW,2012-11-18 19:00:00,
2012-11-18 11:05:00,45.5,44.2,29.72,SW,225,3.4,6.0,95,0.00,,,0.36,WUHU216HW,2012-11-18 19:05:00,
2012-11-18 11:10:00,45.5,44.2,29.72,SSW,203,1.3,6.9,95,0.00,,,0.36,WUHU216HW,2012-11-18 19:10:00,
2012-11-18 11:15:00,45.5,44.2,29.72,WSW,248,2.9,6.9,95,0.01,,,0.37,WUHU216HW,2012-11-18 19:15:00,
2012-11-18 11:20:00,45.5,44.2,29.71,SW,225,1.6,5.6,95,0.01,,,0.37,WUHU216HW,2012-11-18 19:20:00,
2012-11-18 11:25:00,45.5,44.2,29.71,SW,225,0.9,6.3,95,0.01,,,0.37,WUHU216HW,2012-11-18 19:25:00,
2012-11-18 11:30:00,45.5,44.2,29.71,SW,225,0.7,6.3,95,0.02,,,0.38,WUHU216HW,2012-11-18 19:30:00,
2012-11-18 11:35:00,45.5,44.2,29.71,SSW,203,1.1,4.5,95,0.02,,,0.38,WUHU216HW,2012-11-18 19:35:00,
2012-11-18 11:40:00,45.7,44.4,29.70,NE,45,1.1,4.5,95,0.02,,,0.38,WUHU216HW,2012-11-18 19:40:00,
2012-11-18 11:45:00,45.7,44.4,29.70,WSW,248,2.2,3.4,95,0.02,,,0.38,WUHU216HW,2012-11-18 19:45:00,
2012-11-18 11:50:00,45.7,44.4,29.69,WSW,248,2.2,3.1,95,0.02,,,0.38,WUHU216HW,2012-11-18 19:50:00,
2012-11-18 11:55:00,45.7,44.4,29.69,WSW,248,0.2,2.9,95,0.03,,,0.39,WUHU216HW,2012-11-18 19:55:00,
2012-11-18 12:00:00,45.7,44.4,29.69,SSW,203,1.1,2.2,95,0.03,,,0.39,WUHU216HW,2012-11-18 20:00:00,
2012-11-18 12:05:00,45.7,44.4,29.69,SW,225,1.1,2.2,95,0.03,,,0.39,WUHU216HW,2012-11-18 20:05:00,
2012-11-18 12:10:00,45.7,44.4,29.68,WSW,248,1.1,2.5,95,0.03,,,0.39,WUHU216HW,2012-11-18 20:10:00,
2012-11-18 12:15:00,45.7,44.4,29.68,SSW,203,1.3,4.3,95,0.02,,,0.39,WUHU216HW,2012-11-18 20:15:00,
2012-11-18 12:20:00,45.7,44.4,29.68,SW,225,0.0,4.3,95,0.02,,,0.39,WUHU216HW,2012-11-18 20:20:00,
2012-11-18 12:25:00,45.7,44.4,29.68,WSW,248,1.1,2.5,95,0.01,,,0.39,WUHU216HW,2012-11-18 20:25:00,
2012-11-18 12:30:00,45.7,44.4,29.68,WSW,248,0.0,2.5,95,0.01,,,0.39,WUHU216HW,2012-11-18 20:30:00,
2012-11-18 12:35:00,45.7,44.4,29.68,West,270,0.0,2.0,95,0.01,,,0.39,WUHU216HW,2012-11-18 20:35:00,
2012-11-18 12:40:00,45.9,44.6,29.67,SW,225,1.8,2.5,95,0.01,,,0.39,WUHU216HW,2012-11-18 20:40:00,
2012-11-18 12:45:00,45.9,44.6,29.67,WSW,248,0.4,3.6,95,0.01,,,0.39,WUHU216HW,2012-11-18 20:45:00,
2012-11-18 12:50:00,45.9,44.6,29.67,SW,225,0.0,3.6,95,0.01,,,0.39,WUHU216HW,2012-11-18 20:50:00,
2012-11-18 12:55:00,46.1,44.7,29.67,WSW,248,0.2,2.9,95,0.00,,,0.39,WUHU216HW,2012-11-18 20:55:00,
2012-11-18 13:00:00,46.1,44.7,29.67,SW,225,0.0,3.8,95,0.00,,,0.39,WUHU216HW,2012-11-18 21:00:00,
2012-11-18 13:05:00,46.1,44.7,29.67,WSW,248,2.5,3.8,95,0.00,,,0.39,WUHU216HW,2012-11-18 21:05:00,
2012-11-18 13:10:00,46.1,44.7,29.66,WSW,248,1.1,2.5,95,0.00,,,0.39,WUHU216HW,2012-11-18 21:10:00,
2012-11-18 13:15:00,46.1,44.7,29.66,SW,225,0.7,2.5,95,0.00,,,0.39,WUHU216HW,2012-11-18 21:15:00,
2012-11-18 13:20:00,46.3,44.9,29.66,SSW,203,0.0,2.5,95,0.00,,,0.39,WUHU216HW,2012-11-18 21:20:00,
2012-11-18 13:25:00,46.1,44.7,29.66,West,270,1.1,1.1,95,0.00,,,0.39,WUHU216HW,2012-11-18 21:25:00,
2012-11-18 13:30:00,46.1,44.7,29.66,SSW,203,1.1,1.8,95,0.00,,,0.39,WUHU216HW,2012-11-18 21:30:00,
2012-11-18 13:35:00,46.3,44.9,29.65,SW,225,0.4,2.9,95,0.00,,,0.39,WUHU216HW,2012-11-18 21:35:00,
2012-11-18 13:40:00,46.3,44.9,29.65,West,270,0.4,2.9,95,0.00,,,0.39,WUHU216HW,2012-11-18 21:40:00,
2012-11-18 13:45:00,46.3,44.9,29.65,West,270,1.8,3.1,95,0.01,,,0.41,WUHU216HW,2012-11-18 21:45:00,
2012-11-18 13:50:00,46.3,44.9,29.64,SSW,203,2.0,4.9,95,0.01,,,0.41,WUHU216HW,2012-11-18 21:50:00,
2012-11-18 13:55:00,46.3,44.6,29.64,WSW,248,1.8,4.9,94,0.01,,,0.41,WUHU216HW,2012-11-18 21:55:00,
2012-11-18 14:00:00,46.3,44.9,29.64,South,180,4.9,4.9,95,0.01,,,0.41,WUHU216HW,2012-11-18 22:00:00,
2012-11-18 14:05:00,46.3,44.6,29.64,SSW,203,4.5,4.9,94,0.01,,,0.41,WUHU216HW,2012-11-18 22:05:00,
2012-11-18 14:10:00,46.4,44.8,29.64,West,270,2.2,4.9,94,0.01,,,0.41,WUHU216HW,2012-11-18 22:10:00,
2012-11-18 14:15:00,46.3,44.6,29.63,SSW,203,1.1,2.9,94,0.01,,,0.41,WUHU216HW,2012-11-18 22:15:00,
2012-11-18 14:20:00,46.4,44.8,29.63,SW,225,1.8,2.9,94,0.01,,,0.41,WUHU216HW,2012-11-18 22:20:00,
2012-11-18 14:25:00,46.4,44.8,29.63,SSW,203,3.6,3.6,94,0.02,,,0.41,WUHU216HW,2012-11-18 22:25:00,
2012-11-18 14:30:00,46.4,44.8,29.63,South,180,1.6,4.7,94,0.02,,,0.41,WUHU216HW,2012-11-18 22:30:00,
2012-11-18 14:35:00,46.4,44.8,29.62,WSW,248,0.7,4.7,94,0.02,,,0.41,WUHU216HW,2012-11-18 22:35:00,
2012-11-18 14:40:00,46.4,44.8,29.62,WSW,248,0.4,2.5,94,0.01,,,0.41,WUHU216HW,2012-11-18 22:40:00,
2012-11-18 14:45:00,46.4,44.8,29.62,SW,225,2.0,2.5,94,0.01,,,0.41,WUHU216HW,2012-11-18 22:45:00,
2012-11-18 14:50:00,46.4,44.8,29.62,WSW,248,1.1,3.8,94,0.01,,,0.41,WUHU216HW,2012-11-18 22:50:00,
2012-11-18 14:55:00,46.3,44.6,29.62,West,270,0.7,5.1,94,0.01,,,0.41,WUHU216HW,2012-11-18 22:55:00,
2012-11-18 15:00:00,46.3,44.6,29.61,SSW,203,0.4,5.1,94,0.02,,,0.43,WUHU216HW,2012-11-18 23:00:00,
2012-11-18 15:05:00,46.3,44.6,29.61,SSW,203,1.1,2.5,94,0.02,,,0.43,WUHU216HW,2012-11-18 23:05:00,
2012-11-18 15:10:00,46.3,44.6,29.61,SSE,158,2.5,5.6,94,0.02,,,0.43,WUHU216HW,2012-11-18 23:10:00,
2012-11-18 15:15:00,46.3,44.6,29.61,WSW,248,1.3,5.6,94,0.02,,,0.43,WUHU216HW,2012-11-18 23:15:00,
2012-11-18 15:20:00,46.3,44.6,29.60,West,270,1.1,4.0,94,0.02,,,0.43,WUHU216HW,2012-11-18 23:20:00,
2012-11-18 15:25:00,46.1,44.5,29.60,WSW,248,0.4,4.0,94,0.02,,,0.43,WUHU216HW,2012-11-18 23:25:00,
2012-11-18 15:30:00,46.1,44.5,29.60,SW,225,1.3,2.9,94,0.02,,,0.43,WUHU216HW,2012-11-18 23:30:00,
2012-11-18 15:35:00,46.1,44.5,29.60,SW,225,0.4,3.8,94,0.02,,,0.43,WUHU216HW,2012-11-18 23:35:00,
2012-11-18 15:40:00,46.1,44.5,29.60,West,270,2.5,3.8,94,0.02,,,0.43,WUHU216HW,2012-11-18 23:40:00,
2012-11-18 15:45:00,46.1,44.5,29.60,WSW,248,1.1,2.9,94,0.02,,,0.43,WUHU216HW,2012-11-18 23:45:00,
2012-11-18 15:50:00,46.1,44.5,29.59,SW,225,0.4,2.9,94,0.02,,,0.43,WUHU216HW,2012-11-18 23:50:00,
2012-11-18 15:55:00,46.1,44.5,29.59,West,270,0.4,2.7,94,0.02,,,0.43,WUHU216HW,2012-11-18 23:55:00,
2012-11-18 16:00:00,45.9,44.3,29.59,WSW,248,2.5,3.6,94,0.01,,,0.43,WUHU216HW,2012-11-19 00:00:00,
2012-11-18 16:05:00,45.9,44.6,29.58,WSW,248,0.2,3.6,95,0.01,,,0.43,WUHU216HW,2012-11-19 00:05:00,
2012-11-18 16:10:00,46.1,44.7,29.58,West,270,0.0,2.9,95,0.02,,,0.45,WUHU216HW,2012-11-19 00:10:00,
2012-11-18 16:15:00,45.9,44.6,29.58,SW,225,0.9,1.6,95,0.02,,,0.45,WUHU216HW,2012-11-19 00:15:00,
2012-11-18 16:20:00,45.9,44.6,29.57,SSE,158,1.1,2.5,95,0.01,,,0.45,WUHU216HW,2012-11-19 00:20:00,
2012-11-18 16:25:00,45.9,44.6,29.57,SW,225,1.1,3.6,95,0.01,,,0.45,WUHU216HW,2012-11-19 00:25:00,
2012-11-18 16:30:00,46.1,44.5,29.57,West,270,0.0,4.3,94,0.01,,,0.45,WUHU216HW,2012-11-19 00:30:00,
2012-11-18 16:35:00,46.1,44.5,29.56,SW,225,2.7,4.3,94,0.01,,,0.45,WUHU216HW,2012-11-19 00:35:00,
2012-11-18 16:40:00,46.1,44.5,29.55,SW,225,3.4,4.7,94,0.01,,,0.45,WUHU216HW,2012-11-19 00:40:00,
2012-11-18 16:45:00,46.1,44.5,29.55,WSW,248,0.7,5.1,94,0.01,,,0.45,WUHU216HW,2012-11-19 00:45:00,
2012-11-18 16:50:00,46.1,44.5,29.55,SSW,203,0.9,5.1,94,0.01,,,0.45,WUHU216HW,2012-11-19 00:50:00,
2012-11-18 16:55:00,46.3,44.6,29.55,West,270,1.8,4.7,94,0.01,,,0.45,WUHU216HW,2012-11-19 00:55:00,
2012-11-18 17:00:00,46.4,44.6,29.54,WSW,248,2.2,4.7,93,0.01,,,0.45,WUHU216HW,2012-11-19 01:00:00,
2012-11-18 17:05:00,46.4,44.8,29.53,South,180,2.5,4.7,94,0.01,,,0.45,WUHU216HW,2012-11-19 01:05:00,
2012-11-18 17:10:00,46.4,44.6,29.53,South,180,2.5,6.5,93,0.00,,,0.45,WUHU216HW,2012-11-19 01:10:00,
2012-11-18 17:15:00,46.4,44.6,29.53,East,90,0.7,6.5,93,0.00,,,0.45,WUHU216HW,2012-11-19 01:15:00,
2012-11-18 17:20:00,46.4,44.6,29.53,NW,315,0.4,5.1,93,0.00,,,0.45,WUHU216HW,2012-11-19 01:20:00,
2012-11-18 17:25:00,46.4,44.6,29.53,WSW,248,3.1,5.1,93,0.00,,,0.45,WUHU216HW,2012-11-19 01:25:00,
2012-11-18 17:30:00,46.4,44.6,29.52,SW,225,1.1,3.6,93,0.01,,,0.45,WUHU216HW,2012-11-19 01:30:00,
2012-11-18 17:35:00,46.4,44.6,29.52,WSW,248,2.2,3.6,93,0.01,,,0.45,WUHU216HW,2012-11-19 01:35:00,
2012-11-18 17:40:00,46.4,44.6,29.51,SE,135,1.1,4.5,93,0.01,,,0.45,WUHU216HW,2012-11-19 01:40:00,
2012-11-18 17:45:00,46.4,44.6,29.51,NW,315,0.4,4.5,93,0.01,,,0.45,WUHU216HW,2012-11-19 01:45:00,
2012-11-18 17:50:00,46.4,44.6,29.51,West,270,2.7,3.4,93,0.02,,,0.46,WUHU216HW,2012-11-19 01:50:00,
2012-11-18 17:55:00,46.4,44.6,29.51,SE,135,0.7,3.6,93,0.03,,,0.48,WUHU216HW,2012-11-19 01:55:00,
2012-11-18 18:00:00,46.3,44.4,29.50,North,0,1.1,4.0,93,0.04,,,0.48,WUHU216HW,2012-11-19 02:00:00,
2012-11-18 18:05:00,46.3,44.4,29.49,NNE,23,1.1,4.0,93,0.05,,,0.50,WUHU216HW,2012-11-19 02:05:00,
2012-11-18 18:10:00,46.3,44.6,29.49,SE,135,0.2,4.0,94,0.06,,,0.50,WUHU216HW,2012-11-19 02:10:00,
2012-11-18 18:15:00,46.3,44.6,29.49,SW,225,3.4,3.4,94,0.07,,,0.52,WUHU216HW,2012-11-19 02:15:00,
2012-11-18 18:21:00,46.1,44.5,29.49,West,270,4.0,5.4,94,0.07,,,0.52,WUHU216HW,2012-11-19 02:21:00,
2012-11-18 18:26:00,46.3,44.6,29.50,WSW,248,5.6,5.6,94,0.07,,,0.53,WUHU216HW,2012-11-19 02:26:00,
2012-11-18 18:31:00,46.1,44.5,29.50,WSW,248,4.7,6.3,94,0.07,,,0.53,WUHU216HW,2012-11-19 02:31:00,
2012-11-18 18:36:00,46.1,44.5,29.50,WSW,248,3.1,6.3,94,0.07,,,0.53,WUHU216HW,2012-11-19 02:36:00,
2012-11-18 18:41:00,46.1,44.5,29.50,WSW,248,2.5,7.6,94,0.08,,,0.54,WUHU216HW,2012-11-19 02:41:00,
2012-11-18 18:46:00,45.9,44.3,29.50,SW,225,3.1,7.6,94,0.08,,,0.54,WUHU216HW,2012-11-19 02:46:00,
2012-11-18 18:51:00,45.9,44.3,29.50,WSW,248,1.8,4.7,94,0.07,,,0.54,WUHU216HW,2012-11-19 02:51:00,
2012-11-18 18:56:00,45.9,44.3,29.50,WSW,248,3.4,4.7,94,0.05,,,0.54,WUHU216HW,2012-11-19 02:56:00,
2012-11-18 19:01:00,45.9,44.3,29.50,SW,225,2.0,6.3,94,0.04,,,0.54,WUHU216HW,2012-11-19 03:01:00,
2012-11-18 19:06:00,45.9,44.3,29.50,SSW,203,2.2,6.3,94,0.03,,,0.54,WUHU216HW,2012-11-19 03:06:00,
2012-11-18 19:11:00,45.7,43.8,29.50,West,270,1.8,5.6,93,0.03,,,0.54,WUHU216HW,2012-11-19 03:11:00,
2012-11-18 19:16:00,45.9,44.3,29.50,SW,225,1.8,5.6,94,0.02,,,0.54,WUHU216HW,2012-11-19 03:16:00,
2012-11-18 19:21:00,45.7,43.8,29.50,SW,225,1.8,4.3,93,0.02,,,0.55,WUHU216HW,2012-11-19 03:21:00,
2012-11-18 19:26:00,45.7,43.8,29.50,West,270,3.4,4.7,93,0.02,,,0.55,WUHU216HW,2012-11-19 03:26:00,
2012-11-18 19:31:00,45.7,43.8,29.51,SW,225,2.5,5.6,93,0.02,,,0.55,WUHU216HW,2012-11-19 03:31:00,
2012-11-18 19:36:00,45.7,43.8,29.51,WSW,248,2.5,5.6,93,0.01,,,0.55,WUHU216HW,2012-11-19 03:36:00,
2012-11-18 19:41:00,45.7,43.8,29.50,WSW,248,2.9,5.6,93,0.01,,,0.55,WUHU216HW,2012-11-19 03:41:00,
2012-11-18 19:46:00,45.9,44.3,29.51,SW,225,0.9,5.6,94,0.02,,,0.56,WUHU216HW,2012-11-19 03:46:00,
2012-11-18 19:51:00,45.9,44.3,29.52,SW,225,6.9,9.4,94,0.02,,,0.56,WUHU216HW,2012-11-19 03:51:00,
2012-11-18 19:56:00,45.9,44.3,29.51,WSW,248,3.4,9.4,94,0.02,,,0.56,WUHU216HW,2012-11-19 03:56:00,
2012-11-18 20:01:00,45.9,44.6,29.52,SW,225,3.1,6.5,95,0.02,,,0.56,WUHU216HW,2012-11-19 04:01:00,
2012-11-18 20:06:00,45.9,44.6,29.51,SW,225,2.2,7.4,95,0.02,,,0.56,WUHU216HW,2012-11-19 04:06:00,
2012-11-18 20:11:00,46.1,44.7,29.51,SSE,158,2.0,7.4,95,0.02,,,0.56,WUHU216HW,2012-11-19 04:11:00,
2012-11-18 20:16:00,46.1,44.7,29.52,WSW,248,3.4,6.7,95,0.01,,,0.56,WUHU216HW,2012-11-19 04:16:00,
2012-11-18 20:21:00,46.1,44.7,29.52,WSW,248,5.4,9.8,95,0.01,,,0.56,WUHU216HW,2012-11-19 04:21:00,
2012-11-18 20:26:00,46.3,44.9,29.52,SW,225,4.9,9.8,95,0.02,,,0.57,WUHU216HW,2012-11-19 04:26:00,
2012-11-18 20:31:00,46.3,44.9,29.53,SW,225,2.9,12.8,95,0.02,,,0.57,WUHU216HW,2012-11-19 04:31:00,
2012-11-18 20:36:00,46.4,44.8,29.53,SW,225,4.7,12.8,94,0.02,,,0.57,WUHU216HW,2012-11-19 04:36:00,
2012-11-18 20:41:00,46.4,44.8,29.53,SW,225,6.3,10.5,94,0.01,,,0.57,WUHU216HW,2012-11-19 04:41:00,
2012-11-18 20:46:00,46.4,45.1,29.53,SSW,203,7.2,10.5,95,0.01,,,0.57,WUHU216HW,2012-11-19 04:46:00,
2012-11-18 20:51:00,46.4,45.1,29.53,WSW,248,8.1,8.5,95,0.02,,,0.57,WUHU216HW,2012-11-19 04:51:00,
2012-11-18 20:56:00,46.4,44.8,29.53,SW,225,1.3,8.3,94,0.02,,,0.57,WUHU216HW,2012-11-19 04:56:00,
2012-11-18 21:00:00,46.4,45.1,29.53,SW,225,1.1,8.1,95,0.02,,,0.57,WUHU216HW,2012-11-19 05:00:00,
2012-11-18 21:05:00,46.4,45.1,29.53,SSW,203,2.0,5.4,95,0.02,,,0.57,WUHU216HW,2012-11-19 05:05:00,
2012-11-18 21:10:00,46.4,45.1,29.53,SSW,203,4.5,6.0,95,0.02,,,0.57,WUHU216HW,2012-11-19 05:10:00,
2012-11-18 21:15:00,46.4,45.1,29.54,SW,225,4.0,6.0,95,0.02,,,0.57,WUHU216HW,2012-11-19 05:15:00,
2012-11-18 21:20:00,46.6,45.3,29.53,North,0,1.8,5.6,95,0.01,,,0.57,WUHU216HW,2012-11-19 05:20:00,
2012-11-18 21:25:00,46.6,45.3,29.53,South,180,1.6,7.6,95,0.02,,,0.59,WUHU216HW,2012-11-19 05:25:00,
2012-11-18 21:30:00,46.6,45.0,29.53,South,180,1.3,7.6,94,0.02,,,0.59,WUHU216HW,2012-11-19 05:30:00,
2012-11-18 21:35:00,46.8,45.2,29.54,SSW,203,3.1,6.0,94,0.03,,,0.60,WUHU216HW,2012-11-19 05:35:00,
2012-11-18 21:40:00,46.8,45.2,29.55,WSW,248,4.3,7.4,94,0.04,,,0.61,WUHU216HW,2012-11-19 05:40:00,
2012-11-18 21:45:00,46.8,45.2,29.55,SW,225,2.7,7.4,94,0.04,,,0.62,WUHU216HW,2012-11-19 05:45:00,
2012-11-18 21:50:00,46.8,45.2,29.55,SSW,203,3.6,6.7,94,0.05,,,0.63,WUHU216HW,2012-11-19 05:50:00,
2012-11-18 21:55:00,46.8,45.2,29.54,South,180,1.1,7.4,94,0.05,,,0.63,WUHU216HW,2012-11-19 05:55:00,
2012-11-18 22:00:00,46.8,45.2,29.55,SSE,158,3.8,7.4,94,0.06,,,0.64,WUHU216HW,2012-11-19 06:00:00,
2012-11-18 22:05:00,46.8,45.2,29.55,WSW,248,4.9,6.7,94,0.07,,,0.65,WUHU216HW,2012-11-19 06:05:00,
2012-11-18 22:10:00,46.6,45.0,29.54,SSW,203,1.8,5.4,94,0.07,,,0.65,WUHU216HW,2012-11-19 06:10:00,
2012-11-18 22:15:00,46.8,45.2,29.54,SW,225,2.7,7.4,94,0.08,,,0.66,WUHU216HW,2012-11-19 06:15:00,
2012-11-18 22:20:00,46.8,45.2,29.54,SSW,203,1.3,7.4,94,0.07,,,0.66,WUHU216HW,2012-11-19 06:20:00,
2012-11-18 22:25:00,46.8,45.2,29.54,SSW,203,2.0,7.6,94,0.08,,,0.67,WUHU216HW,2012-11-19 06:25:00,
2012-11-18 22:30:00,46.6,45.0,29.54,WSW,248,3.4,7.6,94,0.08,,,0.67,WUHU216HW,2012-11-19 06:30:00,
2012-11-18 22:35:00,46.6,45.0,29.54,WSW,248,1.8,8.5,94,0.07,,,0.67,WUHU216HW,2012-11-19 06:35:00,
2012-11-18 22:40:00,46.8,45.2,29.54,West,270,1.8,8.5,94,0.06,,,0.68,WUHU216HW,2012-11-19 06:40:00,
2012-11-18 22:45:00,46.8,45.2,29.54,SW,225,6.0,6.3,94,0.07,,,0.69,WUHU216HW,2012-11-19 06:45:00,
2012-11-18 22:50:00,46.8,45.2,29.54,SSW,203,4.3,7.8,94,0.06,,,0.69,WUHU216HW,2012-11-19 06:50:00,
2012-11-18 22:55:00,46.6,45.0,29.54,SW,225,4.5,9.4,94,0.07,,,0.70,WUHU216HW,2012-11-19 06:55:00,
2012-11-18 23:00:00,46.6,45.0,29.54,NNE,23,0.4,9.4,94,0.05,,,0.70,WUHU216HW,2012-11-19 07:00:00,
2012-11-18 23:05:00,46.6,45.0,29.54,SSW,203,2.5,6.0,94,0.06,,,0.71,WUHU216HW,2012-11-19 07:05:00,
2012-11-18 23:10:00,46.6,45.0,29.53,ESE,113,5.6,5.6,94,0.06,,,0.71,WUHU216HW,2012-11-19 07:10:00,
2012-11-18 23:15:00,46.6,45.0,29.53,WSW,248,1.3,5.6,94,0.05,,,0.71,WUHU216HW,2012-11-19 07:15:00,
2012-11-18 23:20:00,46.6,45.0,29.53,WSW,248,4.0,6.3,94,0.04,,,0.71,WUHU216HW,2012-11-19 07:20:00,
2012-11-18 23:25:00,46.6,45.0,29.53,SW,225,1.1,6.9,94,0.05,,,0.72,WUHU216HW,2012-11-19 07:25:00,
2012-11-18 23:30:00,46.6,45.0,29.54,SSE,158,6.5,7.4,94,0.05,,,0.72,WUHU216HW,2012-11-19 07:30:00,
2012-11-18 23:35:00,46.6,45.0,29.53,SSW,203,6.7,8.5,94,0.04,,,0.72,WUHU216HW,2012-11-19 07:35:00,
2012-11-18 23:40:00,46.6,45.0,29.54,South,180,4.0,8.5,94,0.04,,,0.72,WUHU216HW,2012-11-19 07:40:00,
2012-11-18 23:45:00,46.6,45.0,29.54,WSW,248,2.2,6.7,94,0.03,,,0.72,WUHU216HW,2012-11-19 07:45:00,
2012-11-18 23:50:00,46.4,44.8,29.54,SSW,203,2.5,4.9,94,0.02,,,0.72,WUHU216HW,2012-11-19 07:50:00,
2012-11-18 23:55:00,46.6,45.0,29.54,WSW,248,1.8,6.0,94,0.02,,,0.72,WUHU216HW,2012-11-19 07:55:00,